Wind_Speed
17 15 15 15 15 14 14 13 13 12 12 11 10 10 9 9 8 8 8 7 7 7 6 6 6 5 5 4 4 3 3 2 2 2 1 1 1 1 1 2 2 2
20 17 16 16 16 15 15 14 14 13 12 12 11 10 10 10 9 9 8 8 8 7 8 7 7 6 6 5 5 4 4 3 3 3 3 2 2 2 3 3 4 3
23 20 17 17 17 17 16 15 15 14 13 12 11 11 11 11 10 10 9 9 9 9 9 9 8 8 7 6 6 5 5 4 4 4 4 4 4 4 4 5 5 4
25 23 20 19 19 18 17 16 15 15 14 13 12 12 12 11 11 11 11 10 10 10 10 9 9 8 7 6 6 5 4 3 3 3 3 4 4 4 5 5 5 5
26 25 23 21 20 19 18 17 17 16 15 14 14 13 13 13 13 13 12 12 11 11 10 10 9 8 7 7 6 5 4 3 1 1 0 1 2 3 4 5 6 6
26 26 25 23 22 21 20 19 18 17 16 16 15 15 14 14 15 14 14 13 12 11 11 10 9 9 9 8 7 6 6 5 4 3 3 2 1 0 1 3 4 5
26 25 26 25 24 23 22 21 19 18 17 17 17 16 16 16 16 15 15 14 13 13 12 12 12 12 11 9 8 7 7 5 5 4 4 4 4 3 3 2 0 3
25 25 25 26 25 24 24 23 20 18 18 18 18 18 17 17 17 16 16 15 14 14 15 14 14 13 11 10 9 8 7 6 5 5 4 4 3 3 4 4 3 1
25 25 24 25 24 24 25 24 22 20 18 18 19 19 18 18 18 17 16 15 15 16 16 16 15 14 12 11 10 8 7 6 5 4 3 3 3 2 3 3 3 2
25 24 24 23 23 23 24 25 24 22 20 19 20 20 20 19 18 17 17 15 16 17 18 17 16 15 14 12 10 9 7 6 5 4 3 2 2 2 2 2 2 2
24 24 24 23 22 21 23 24 25 23 21 20 21 21 21 20 19 18 18 17 17 19 19 19 18 16 15 13 11 10 8 6 5 4 3 1 0 1 1 2 2 2
22 23 23 23 22 21 22 24 24 23 22 21 21 21 21 21 20 19 19 18 19 20 20 20 19 17 16 14 12 11 9 8 6 5 4 3 2 1 1 2 2 2
21 22 23 23 23 23 23 24 24 23 22 21 21 22 22 22 22 21 20 20 21 21 21 21 20 18 16 14 13 12 11 9 7 6 5 4 3 2 2 2 2 2
21 22 22 23 23 24 24 24 24 23 22 22 21 21 21 22 23 22 22 21 22 22 22 22 21 19 17 15 14 13 12 10 8 7 6 5 5 4 4 4 4 4
19 22 23 23 23 23 23 24 24 24 23 23 22 21 21 22 23 24 23 22 22 23 23 23 21 20 18 17 16 15 13 11 9 8 8 7 6 6 6 6 5 5
16 19 22 23 23 22 22 23 24 25 24 23 22 22 22 22 23 24 24 23 22 23 24 24 23 21 20 20 18 16 15 13 11 10 9 8 8 8 7 7 7 7
15 17 20 22 22 23 22 22 23 24 24 23 23 24 23 23 24 25 25 25 23 23 24 24 24 24 23 22 20 18 16 14 12 10 10 9 10 10 9 9 9 9
16 17 18 20 21 22 23 22 22 23 24 23 22 24 25 25 25 25 25 26 25 24 23 24 25 26 25 24 22 19 17 15 12 11 11 11 11 11 11 11 10 10
17 17 18 18 20 22 23 23 23 22 23 23 22 24 26 26 26 25 26 27 27 25 23 24 26 27 27 26 24 21 18 16 14 12 11 12 12 12 12 12 12 12
18 18 18 18 19 20 22 23 23 22 23 23 23 23 25 26 26 26 27 28 28 27 25 24 25 27 28 28 27 24 21 18 16 13 11 12 13 14 14 14 14 14
19 20 20 19 19 19 20 22 23 23 23 23 23 23 24 26 27 27 27 28 29 29 27 25 25 27 29 30 29 27 24 20 17 14 12 12 13 15 15 15 15 16
21 21 21 21 20 19 18 19 21 23 23 23 24 24 23 25 26 27 27 28 29 30 28 27 25 26 28 30 31 31 28 24 19 16 13 13 14 16 16 16 16 16
22 22 23 22 21 19 17 18 20 22 24 24 24 24 23 24 25 27 27 28 29 30 29 28 27 26 28 30 32 33 31 26 22 18 15 14 16 17 18 18 17 16
23 24 24 23 22 20 18 18 20 22 23 24 24 24 24 24 24 26 27 27 29 30 30 29 29 28 28 30 32 34 33 29 25 21 17 17 18 19 19 19 19 18
25 25 25 25 24 22 21 20 20 21 23 24 25 25 25 24 24 24 25 26 28 29 30 30 30 29 28 29 31 33 33 30 27 23 20 20 21 21 21 21 20 19
27 26 26 26 25 24 24 22 21 22 23 23 24 25 25 25 24 23 23 24 26 29 30 30 31 30 29 29 30 32 32 31 28 25 23 23 24 23 23 22 22 21
Wind_Direction
222 211 205 206 209 209 208 207 206 204 202 202 202 203 203 202 202 202 205 205 203 204 207 206 209 216 225 233 235 229 226 230 241 252 260 267 283 277 263 258 267 290
228 220 212 211 213 213 212 212 212 210 208 209 208 209 211 211 211 212 212 215 214 215 220 220 220 223 226 235 244 247 247 248 250 257 263 261 252 248 249 253 260 270
231 227 219 217 218 217 215 215 215 214 214 214 214 214 216 217 219 220 221 223 222 221 224 224 223 225 225 229 238 245 252 254 254 257 263 265 259 253 252 255 261 267
232 232 227 223 223 222 220 218 217 217 217 217 218 219 220 221 224 226 226 228 228 227 226 224 221 221 220 219 220 223 231 243 253 261 266 270 269 264 262 262 263 267
232 233 232 229 227 228 226 223 221 218 218 219 221 222 223 223 226 229 229 230 230 229 227 222 214 207 200 193 186 179 172 170 173 181 227 266 274 269 265 264 262 263
233 233 235 234 232 232 232 229 226 221 219 220 222 224 225 226 228 230 231 231 228 226 221 212 198 187 182 177 169 164 158 149 138 123 114 109 107 154 250 260 256 255
238 236 237 236 235 235 236 235 231 226 222 222 224 226 228 229 229 230 231 230 225 218 210 200 190 183 180 178 173 169 163 154 144 134 123 112 104 100 95 83 220 235
241 241 240 240 238 237 239 239 237 233 228 226 227 229 231 233 232 232 231 228 220 211 203 195 190 188 187 185 182 177 171 164 154 145 132 116 102 91 86 78 74 99
240 242 243 243 242 241 242 243 243 239 234 231 231 233 236 238 239 237 235 229 217 208 202 197 194 193 194 193 190 186 181 175 165 156 142 122 103 80 69 69 68 69
240 241 243 244 244 245 246 247 248 245 240 235 234 235 238 242 245 244 242 235 220 208 204 201 199 198 200 201 197 193 192 188 180 176 169 141 110 76 45 40 51 55
240 242 243 244 244 245 247 250 252 251 247 241 237 236 239 243 246 247 246 240 227 215 209 207 204 203 205 206 203 200 201 200 200 203 203 195 147 63 21 9 11 11
242 244 245 245 244 243 245 248 252 254 252 247 242 238 238 242 246 248 247 242 232 222 217 213 210 209 209 210 209 207 207 208 213 222 226 233 250 293 339 345 339 331
244 245 246 246 245 243 243 244 247 251 253 251 246 241 239 241 244 247 248 245 238 229 223 220 216 214 214 215 215 215 215 215 219 228 236 245 263 281 293 307 307 297
244 244 245 246 247 246 246 246 246 248 250 251 249 244 241 240 242 245 247 248 245 237 230 227 222 218 218 220 220 221 221 221 223 231 240 249 262 277 282 283 282 279
245 243 244 246 248 249 248 250 249 248 247 248 249 247 242 240 241 244 247 249 248 243 237 232 227 221 221 224 225 225 227 227 226 232 243 250 257 268 274 275 274 274
248 246 244 244 248 250 250 250 251 251 249 247 247 247 244 240 240 242 245 248 248 246 242 237 230 224 223 227 228 228 230 232 232 234 241 250 259 266 268 268 271 272
248 249 247 246 246 249 250 251 252 253 253 249 247 247 245 242 240 240 243 246 247 246 244 240 233 227 225 228 231 230 230 233 237 241 245 250 257 265 267 266 269 272
247 249 249 248 247 248 250 251 252 253 254 252 249 248 247 244 241 240 241 244 245 245 244 241 236 230 228 230 232 232 232 233 238 245 252 255 256 261 266 267 269 272
247 248 249 249 247 247 248 249 251 253 255 254 250 248 248 246 244 242 240 241 243 244 243 241 238 233 231 232 234 234 233 235 239 243 251 259 261 261 264 267 269 271
247 247 248 249 248 248 248 249 251 251 253 254 252 249 249 248 247 244 242 241 241 242 241 240 238 235 232 233 235 237 235 235 240 243 248 258 264 264 263 265 268 271
246 246 247 249 250 251 250 251 251 250 251 253 253 251 250 249 248 246 244 243 242 241 240 239 238 236 233 233 236 239 238 235 237 242 248 257 265 265 263 262 265 269
243 245 248 251 253 253 253 254 253 251 249 249 251 252 251 250 250 248 245 244 244 243 240 239 238 236 234 233 235 240 241 237 236 241 249 260 267 265 262 261 264 267
239 244 248 253 256 256 257 257 256 252 249 247 249 251 252 252 252 250 246 243 244 244 241 238 237 236 235 234 235 239 241 239 237 240 249 262 269 266 262 261 264 266
237 242 247 253 258 260 260 259 257 255 250 248 248 249 251 252 252 251 248 244 243 243 242 239 236 234 234 234 235 238 241 240 238 240 249 264 269 266 262 262 264 266
238 241 246 252 258 262 263 260 259 257 253 250 248 248 249 251 252 252 250 246 244 243 242 241 238 235 234 234 236 238 241 241 239 239 249 263 267 265 263 262 264 267
243 243 246 251 256 261 262 260 258 257 255 253 251 249 249 251 253 255 253 249 245 243 242 242 240 237 235 235 237 239 241 242 240 240 249 261 264 265 264 264 265 267
Height
5936 5938 5939 5940 5941 5942 5943 5944 5945 5946 5948 5949 5949 5950 5951 5952 5952 5953 5954 5955 5955 5956 5957 5957 5958 5958 5958 5959 5960 5960 5961 5961 5961 5962 5962 5963 5963 5964 5964 5965 5965 5966
5935 5937 5938 5939 5940 5942 5943 5944 5945 5946 5947 5948 5949 5950 5951 5952 5952 5953 5954 5955 5955 5956 5957 5957 5958 5958 5959 5959 5960 5960 5961 5961 5962 5962 5962 5963 5963 5964 5964 5965 5966 5966
5934 5936 5937 5938 5940 5941 5942 5943 5944 5946 5947 5948 5949 5950 5951 5951 5952 5953 5954 5954 5955 5956 5957 5957 5958 5959 5959 5959 5960 5960 5961 5961 5962 5962 5962 5963 5963 5964 5964 5965 5965 5966
5933 5934 5936 5937 5939 5940 5941 5943 5944 5945 5946 5947 5949 5949 5950 5951 5951 5952 5953 5954 5955 5955 5956 5957 5958 5959 5959 5960 5960 5961 5961 5962 5962 5962 5962 5963 5963 5964 5964 5965 5965 5965
5931 5933 5935 5936 5938 5939 5941 5942 5943 5944 5946 5947 5948 5949 5950 5950 5951 5952 5953 5953 5954 5955 5956 5957 5957 5958 5959 5960 5960 5961 5962 5962 5962 5963 5963 5963 5963 5963 5964 5964 5965 5965
5929 5932 5934 5935 5937 5938 5940 5941 5942 5944 5945 5946 5947 5948 5949 5950 5950 5951 5952 5953 5954 5955 5956 5957 5957 5958 5959 5960 5961 5961 5962 5962 5963 5963 5963 5963 5964 5964 5964 5964 5965 5965
5928 5930 5932 5934 5936 5937 5939 5940 5942 5943 5944 5945 5947 5948 5948 5949 5950 5951 5951 5952 5954 5955 5956 5956 5957 5958 5959 5960 5961 5961 5962 5963 5963 5964 5964 5964 5964 5964 5965 5965 5965 5965
5927 5929 5931 5932 5934 5936 5938 5939 5941 5942 5944 5945 5946 5947 5948 5948 5949 5950 5951 5952 5953 5954 5955 5956 5957 5958 5959 5959 5960 5961 5962 5963 5963 5964 5964 5964 5964 5964 5965 5965 5965 5965
5925 5927 5929 5931 5933 5935 5937 5938 5940 5941 5943 5944 5945 5946 5947 5948 5948 5949 5950 5951 5952 5953 5954 5955 5956 5957 5958 5959 5960 5961 5962 5962 5963 5963 5964 5964 5964 5964 5965 5965 5965 5966
5924 5926 5928 5929 5932 5934 5935 5937 5938 5940 5942 5943 5944 5945 5946 5947 5948 5949 5949 5950 5951 5952 5954 5955 5956 5956 5957 5958 5959 5960 5961 5962 5962 5963 5963 5964 5964 5965 5965 5965 5966 5966
5923 5924 5926 5928 5930 5932 5934 5935 5936 5938 5940 5942 5943 5944 5945 5946 5947 5948 5948 5949 5950 5951 5952 5953 5955 5956 5957 5958 5959 5960 5960 5961 5962 5962 5963 5964 5964 5965 5965 5965 5966 5966
5921 5923 5925 5926 5928 5930 5932 5933 5934 5936 5938 5940 5941 5943 5944 5945 5946 5947 5947 5948 5949 5950 5951 5952 5954 5955 5956 5957 5958 5959 5960 5960 5961 5962 5962 5963 5964 5964 5965 5965 5966 5966
5920 5921 5923 5924 5926 5928 5929 5930 5932 5934 5936 5938 5939 5941 5943 5944 5944 5946 5946 5947 5948 5949 5950 5951 5953 5954 5955 5956 5957 5958 5959 5960 5960 5961 5962 5962 5963 5964 5965 5965 5965 5966
5917 5919 5920 5922 5924 5926 5927 5929 5930 5932 5934 5936 5937 5939 5941 5942 5943 5944 5945 5946 5947 5948 5949 5950 5952 5953 5955 5956 5957 5957 5958 5959 5960 5960 5961 5962 5963 5963 5964 5965 5965 5965
5915 5916 5918 5920 5922 5924 5926 5927 5928 5930 5932 5934 5935 5937 5938 5940 5941 5942 5943 5945 5946 5947 5948 5950 5951 5953 5954 5955 5956 5957 5957 5958 5959 5960 5961 5961 5962 5963 5963 5964 5964 5965
5913 5914 5916 5918 5919 5921 5923 5925 5926 5928 5930 5932 5933 5934 5936 5938 5939 5940 5942 5943 5945 5946 5947 5949 5951 5952 5953 5954 5955 5956 5957 5958 5958 5959 5960 5961 5961 5962 5962 5963 5963 5964
5912 5913 5914 5915 5917 5919 5921 5923 5924 5926 5928 5930 5931 5932 5934 5935 5937 5938 5940 5941 5943 5944 5946 5948 5950 5951 5952 5953 5954 5955 5956 5957 5957 5958 5959 5960 5960 5961 5961 5962 5962 5963
5910 5911 5912 5913 5915 5917 5918 5920 5922 5923 5925 5928 5930 5931 5931 5933 5935 5936 5938 5939 5940 5942 5944 5946 5948 5949 5950 5951 5952 5953 5954 5955 5956 5957 5958 5958 5959 5960 5960 5960 5961 5961
5908 5909 5910 5912 5913 5915 5916 5918 5919 5921 5923 5925 5927 5928 5929 5930 5932 5934 5935 5936 5938 5940 5942 5944 5945 5947 5948 5949 5950 5952 5953 5954 5955 5956 5956 5957 5957 5958 5958 5958 5959 5959
5906 5907 5909 5910 5911 5913 5914 5915 5917 5919 5920 5922 5924 5925 5927 5928 5930 5931 5933 5934 5935 5937 5939 5941 5942 5944 5946 5947 5948 5949 5951 5952 5953 5954 5955 5955 5956 5956 5956 5956 5957 5957
5904 5905 5906 5908 5909 5911 5912 5913 5915 5916 5918 5919 5921 5923 5924 5925 5927 5928 5930 5931 5933 5934 5936 5938 5940 5942 5943 5945 5946 5947 5948 5950 5951 5952 5953 5954 5954 5954 5954 5955 5955 5955
5902 5903 5904 5905 5907 5909 5910 5911 5912 5913 5915 5916 5918 5919 5921 5923 5924 5925 5927 5929 5930 5931 5933 5935 5937 5939 5940 5942 5943 5944 5945 5947 5949 5950 5951 5952 5952 5952 5952 5953 5953 5953
5900 5901 5902 5903 5904 5906 5908 5909 5910 5911 5912 5914 5915 5916 5918 5920 5921 5922 5924 5926 5927 5928 5931 5932 5934 5936 5937 5939 5940 5940 5942 5945 5946 5947 5948 5949 5950 5950 5950 5950 5951 5951
5898 5899 5900 5901 5902 5904 5905 5907 5907 5908 5909 5911 5912 5913 5915 5917 5918 5919 5921 5922 5924 5925 5927 5929 5931 5933 5934 5935 5937 5937 5939 5942 5943 5945 5946 5947 5947 5947 5947 5948 5948 5948
5895 5896 5898 5899 5900 5901 5902 5904 5905 5906 5907 5908 5909 5910 5912 5913 5915 5916 5917 5919 5921 5922 5924 5925 5927 5930 5931 5933 5934 5935 5936 5939 5940 5942 5943 5944 5944 5944 5945 5945 5945 5946
5892 5894 5895 5896 5898 5899 5899 5901 5902 5903 5904 5905 5906 5907 5909 5910 5912 5913 5915 5916 5918 5919 5920 5922 5924 5926 5928 5930 5931 5932 5934 5936 5937 5939 5941 5941 5940 5941 5942 5942 5943 5943